Location: Forst
(46.9333°N, 15.4333°E)
Time: 14:05:15
(UTC+00:00)

Cosmos 2181 Rocket - Pass Details

Date: 01 December 2020
Orbit: 951 x 1015 km, 82.9° (Epoch: 27 January)

Event Time Altitude Azimuth Distance (km) Brightness Sun altitude
Rises 15:54:28 0° 171° (S) 3,733 7.3 -7.3°
Reaches altitude 10° 15:57:03 10° 166° (SSE) 2,782 6.5 -7.7°
Maximum altitude 16:03:14 54° 92° (E) 1,207 4.2 -8.7°
Drops below altitude 10° 16:09:23 10° 17° (NNE) 2,765 6.0 -9.7°
Sets 16:11:56 0° 13° (NNE) 3,708 6.7 -10.1°
